Cloud_Cover
100 100 93 6 100 25 5 0 0 0 0 4 96 100 100 100 100 100 100 100 100 100 100 100 100 100 100 100 100 100 66 96 98 99 79 100 18 100 72 23 22 89 46 3 2 5 1 0 0 0 0 0 2 99
100 100 13 44 100 6 2 0 0 0 11 57 100 100 100 100 100 100 100 100 100 100 100 100 100 100 100 100 100 100 99 84 76 92 83 58 55 28 7 24 60 5 38 51 3 0 0 0 0 0 0 0 0 29
18 99 11 82 100 5 0 0 0 7 8 100 100 100 99 98 100 100 100 100 100 100 100 100 100 100 100 100 100 100 100 100 100 97 94 97 69 76 80 92 100 51 99 77 38 3 5 5 0 0 0 0 0 1
46 96 94 99 70 4 1 12 20 16 90 100 100 100 100 100 100 100 100 100 100 100 100 100 100 100 100 100 100 100 100 100 100 100 100 97 96 89 59 82 96 72 100 100 87 39 16 5 0 0 0 0 0 0
30 87 100 100 5 0 14 33 73 97 100 100 100 100 100 100 97 100 100 100 100 100 100 100 100 100 100 100 100 100 100 100 100 100 100 100 100 100 90 70 38 81 24 56 36 55 91 54 66 0 0 0 0 0
46 51 76 98 18 39 94 97 100 100 100 100 100 98 100 100 100 99 100 100 100 100 100 100 100 100 100 100 100 100 100 100 100 100 100 100 100 100 100 100 91 100 90 71 33 57 97 37 6 5 15 0 0 0
100 8 100 67 100 100 100 100 100 100 100 100 95 100 95 100 98 100 100 100 100 100 100 100 100 100 100 100 100 100 100 100 100 100 100 100 100 100 100 100 100 100 100 80 86 100 66 100 62 9 0 0 0 2
45 69 100 100 100 99 100 100 100 100 100 100 100 100 48 100 63 100 100 100 100 100 100 100 100 100 100 100 100 100 100 100 100 100 100 100 100 100 100 100 100 100 100 100 100 99 87 57 100 99 39 53 30 46
95 100 100 100 100 100 100 92 100 100 100 91 100 100 54 97 100 100 100 100 100 100 100 100 100 100 100 100 100 100 100 100 100 100 100 100 100 100 100 100 100 100 85 100 88 100 100 98 78 56 34 23 7 68
100 100 100 100 100 100 92 63 100 100 20 75 92 98 100 100 100 100 100 100 100 100 100 100 100 100 100 100 100 100 100 100 100 100 100 100 100 100 100 100 100 100 100 91 91 92 62 11 98 100 48 40 100 100
100 100 89 35 86 27 45 73 100 21 26 92 37 100 100 100 100 100 100 100 100 100 100 100 100 100 100 100 100 100 100 100 100 100 100 100 100 100 100 100 100 100 100 100 100 100 100 100 100 90 95 100 100 100
100 96 33 100 49 28 17 59 96 17 100 25 99 94 100 100 100 100 100 100 100 84 100 100 100 100 100 100 100 100 100 100 100 100 100 100 100 100 100 100 100 100 100 100 100 100 100 100 100 100 100 96 100 100
95 23 22 43 8 0 4 6 95 84 73 74 100 100 100 100 100 100 100 100 100 100 100 100 100 100 100 100 100 100 100 100 94 92 100 100 100 100 100 100 100 100 100 100 100 100 100 100 100 100 100 100 100 100
0 0 19 0 0 0 45 30 97 98 94 100 100 99 100 100 100 100 100 100 73 95 100 100 100 100 100 100 100 100 100 99 100 100 100 100 100 100 100 100 100 100 100 100 100 100 100 100 100 100 100 100 100 100
4 0 0 0 0 3 4 7 48 63 5 21 100 100 96 97 100 100 98 90 94 99 95 100 98 98 100 100 100 100 100 100 100 100 88 99 100 100 100 100 100 100 100 100 100 100 100 100 100 100 100 100 100 100
0 8 1 0 0 0 0 1 96 58 0 6 20 100 100 90 98 89 64 100 86 44 92 57 93 96 80 39 98 100 100 100 100 97 93 94 81 78 100 100 100 100 100 100 100 100 100 100 100 100 100 100 100 100
28 0 0 0 0 2 11 8 0 49 99 97 74 5 39 9 5 3 5 4 9 74 100 98 70 78 59 30 91 100 100 100 100 100 100 100 100 100 81 99 100 100 100 100 100 100 100 100 100 100 100 100 100 100
0 0 0 0 4 0 0 0 0 1 5 8 14 5 5 0 0 0 0 0 0 2 5 5 65 65 98 100 100 98 53 98 100 100 100 100 100 100 100 100 100 100 100 100 100 100 100 100 100 100 100 97 100 100
0 3 0 0 7 7 0 0 0 3 5 5 41 37 8 5 5 0 1 0 0 0 4 10 57 97 80 17 5 5 14 54 88 77 94 76 81 100 92 84 100 100 100 100 100 100 100 93 100 100 100 100 100 100
1 0 0 0 18 0 0 0 0 2 11 10 5 48 48 18 5 2 2 5 5 5 5 12 69 81 51 5 1 5 5 6 32 100 96 96 84 51 18 9 5 76 100 100 100 100 100 100 100 80 86 98 100 100
0 0 0 0 0 0 0 0 0 0 0 6 1 13 44 60 6 5 5 5 5 5 5 5 5 5 0 0 0 0 0 0 5 5 22 70 56 94 40 5 5 0 7 44 100 100 100 100 100 100 100 100 100 100
0 2 0 0 0 0 0 0 0 0 0 0 16 4 12 6 5 0 3 44 37 60 5 5 5 4 5 0 0 0 0 0 2 2 1 3 5 5 5 5 0 1 0 3 5 5 49 40 77 98 100 100 100 100
3 10 0 0 0 36 42 1 1 0 3 0 0 6 20 55 5 5 5 37 98 14 5 5 5 2 1 4 5 2 0 0 0 0 0 4 9 26 5 5 5 2 4 5 5 30 22 3 5 7 76 97 97 54
58 0 0 0 5 32 0 0 0 0 0 0 4 5 16 9 22 5 5 5 5 58 35 5 5 5 5 3 5 5 0 0 0 0 0 0 1 5 5 5 5 5 5 16 42 42 45 42 3 5 5 5 5 5
44 11 36 83 5 5 5 1 0 0 4 0 4 5 8 66 100 94 96 12 6 5 23 15 5 5 5 5 5 4 4 5 2 0 3 0 0 5 5 5 5 5 5 5 24 56 73 87 96 75 81 6 5 50
61 3 46 5 5 5 5 4 0 2 5 5 5 5 25 19 28 30 52 28 47 42 44 77 8 78 59 5 5 5 5 6 11 5 4 0 2 5 5 5 5 37 3 5 5 49 74 77 86 69 77 78 16 60
12 0 0 1 2 5 5 5 5 5 5 18 80 75 11 45 78 27 7 61 67 83 98 98 91 100 93 94 30 45 46 54 90 65 22 5 5 5 5 5 5 4 3 11 64 91 100 100 87 84 94 99 96 91
1 0 0 0 5 4 2 5 5 5 8 5 26 8 40 43 53 50 58 55 58 77 58 100 100 100 98 84 42 34 69 89 100 97 71 30 9 35 5 5 5 0 1 7 38 93 100 100 97 100 100 100 100 97
4 3 5 5 5 7 30 5 5 5 5 5 18 21 36 5 29 77 63 74 97 100 100 100 100 98 83 56 72 100 100 100 71 20 49 74 82 54 12 15 61 41 42 98 34 3 10 39 59 64 96 100 100 100
34 95 83 5 23 29 74 71 80 5 5 5 16 30 5 5 5 5 40 88 100 100 100 100 98 100 98 55 55 83 100 100 88 13 11 24 59 75 94 95 85 93 96 100 100 94 27 71 93 91 100 99 100 94
2 4 5 5 12 84 30 5 5 5 5 5 5 5 5 5 17 36 69 100 100 100 91 92 96 98 100 100 100 83 8 52 4 3 4 38 98 99 100 100 100 99 98 98 100 100 100 97 100 98 95 100 100 97
39 5 49 29 34 5 5 5 6 40 61 9 5 6 7 46 40 50 100 100 100 100 100 98 60 67 75 51 6 0 0 4 7 66 48 89 98 88 100 100 100 100 100 100 100 100 100 100 100 100 100 100 100 100
4 5 5 5 5 5 5 25 81 100 100 86 98 97 56 6 5 10 66 100 100 85 72 38 5 5 4 0 0 0 2 4 0 3 5 5 66 84 80 97 93 96 100 100 100 100 100 100 100 100 100 100 100 100